User: anonymous   Login
Location: Cul de Sac
(18.0387°N, 63.0654°W)
Time: 09:11:40
(UTC+00:00)
Language:

CZ-4B R/B - Orbit

View from above orbital plane
View from above orbital plane
View from above satellite
View from above satellite

Ground track
Ground track

The orbit data is extracted from the following two-line orbital elements,

1 29093U 06015B   21019.05361333  .00002708  00000-0  52065-4 0  9991
2 29093  97.6302 203.0201 0050007 260.3464  99.2134 15.47601315819916
Epoch (UTC): 19 January 2021 01:17:12
Eccentricity: 0.0050007
inclination: 97.6302°
perigee height: 390 km
apogee height: 458 km
right ascension of ascending node: 203.0201°
argument of perigee: 260.3464°
revolutions per day: 15.47601315
mean anomaly at epoch: 99.2134°
orbit number at epoch: 81991

The dashed part of the orbit path shows where the satellite is in the earth's shadow,  

DLR